User: anonymous   Login
Location: Acton
(51.4942°N, 0.2232°W)
Time: 17:50:42
(UTC+00:00)
Language:

Cosmos 1092 Rocket - Orbit

View from above orbital plane
View from above orbital plane
View from above satellite
View from above satellite

Ground track
Ground track

The orbit data is extracted from the following two-line orbital elements,

1 11327U 79030B   20337.57967990  .00000034  00000-0  19546-4 0  9996
2 11327  82.9513  77.0782 0026693 238.5746 131.7420 13.76947160 92920
Epoch (UTC): 02 December 2020 13:54:44
Eccentricity: 0.0026693
inclination: 82.9513°
perigee height: 955 km
apogee height: 994 km
right ascension of ascending node: 77.0782°
argument of perigee: 238.5746°
revolutions per day: 13.76947160
mean anomaly at epoch: 131.7420°
orbit number at epoch: 9292

The dashed part of the orbit path shows where the satellite is in the earth's shadow,  

DLR